Time,TemperatureF,DewpointF,PressureIn,WindDirection,WindDirectionDegrees,WindSpeedMPH,WindSpeedGustMPH,Humidity,HourlyPrecipIn,Conditions,Clouds,dailyrainin,SoftwareType,DateUTC
2013-05-17 00:00:00,54.5,49.8,29.95,East,87,0.0,3.0,84,0.00,,---,0.00,VWS V14.01,2013-05-17 07:00:00,
2013-05-17 00:02:00,54.4,49.7,29.95,East,87,0.0,0.0,84,0.00,,---,0.00,VWS V14.01,2013-05-17 07:02:00,
2013-05-17 00:07:00,54.4,49.7,29.95,East,87,0.0,0.0,84,0.00,,---,0.00,VWS V14.01,2013-05-17 07:07:00,
2013-05-17 00:11:00,54.4,50.0,29.95,East,87,0.0,0.0,85,0.00,,---,0.00,VWS V14.01,2013-05-17 07:11:00,
2013-05-17 00:15:00,54.4,49.7,29.95,East,87,0.0,0.0,84,0.00,,---,0.00,VWS V14.01,2013-05-17 07:15:00,
2013-05-17 00:16:00,54.4,50.0,29.95,East,87,0.0,0.0,85,0.00,,---,0.00,VWS V14.01,2013-05-17 07:16:00,
2013-05-17 00:21:00,54.3,49.6,29.95,East,79,0.0,1.0,84,0.00,,---,0.00,VWS V14.01,2013-05-17 07:21:00,
2013-05-17 00:26:00,54.3,49.9,29.95,East,79,0.0,1.0,85,0.00,,---,0.00,VWS V14.01,2013-05-17 07:26:00,
2013-05-17 00:30:00,54.2,49.8,29.95,East,79,0.0,1.0,85,0.00,,---,0.00,VWS V14.01,2013-05-17 07:30:00,
2013-05-17 00:31:00,54.2,49.8,29.95,East,79,0.0,0.0,85,0.00,,---,0.00,VWS V14.01,2013-05-17 07:31:00,
2013-05-17 00:36:00,54.2,49.8,29.95,East,79,0.0,0.0,85,0.00,,---,0.00,VWS V14.01,2013-05-17 07:36:00,
2013-05-17 00:41:00,54.1,49.7,29.95,East,79,0.0,0.0,85,0.00,,---,0.00,VWS V14.01,2013-05-17 07:41:00,
2013-05-17 00:45:00,54.1,49.7,29.95,East,79,0.0,0.0,85,0.00,,---,0.00,VWS V14.01,2013-05-17 07:45:00,
2013-05-17 00:46:00,54.1,49.7,29.95,East,79,0.0,0.0,85,0.00,,---,0.00,VWS V14.01,2013-05-17 07:46:00,
2013-05-17 00:51:00,54.0,49.6,29.95,East,79,0.0,0.0,85,0.00,,---,0.00,VWS V14.01,2013-05-17 07:51:00,
2013-05-17 00:56:00,53.9,49.5,29.95,East,79,0.0,1.0,85,0.00,,---,0.00,VWS V14.01,2013-05-17 07:56:00,
2013-05-17 01:00:00,53.8,49.7,29.95,ENE,62,0.0,2.0,86,0.00,,---,0.00,VWS V14.01,2013-05-17 08:00:00,
2013-05-17 01:01:00,53.8,49.7,29.95,ENE,62,0.0,0.0,86,0.00,,---,0.00,VWS V14.01,2013-05-17 08:01:00,
2013-05-17 01:06:00,53.8,49.7,29.95,ENE,62,0.0,0.0,86,0.00,,---,0.00,VWS V14.01,2013-05-17 08:06:00,
2013-05-17 01:11:00,53.7,49.6,29.95,ENE,62,0.0,0.0,86,0.00,,---,0.00,VWS V14.01,2013-05-17 08:11:00,
2013-05-17 01:15:00,53.6,49.5,29.95,ENE,62,0.0,1.0,86,0.00,,---,0.00,VWS V14.01,2013-05-17 08:15:00,
2013-05-17 01:16:00,53.6,49.5,29.95,ENE,62,0.0,0.0,86,0.00,,---,0.00,VWS V14.01,2013-05-17 08:16:00,
2013-05-17 01:21:00,53.5,49.4,29.95,ENE,62,0.0,0.0,86,0.00,,---,0.00,VWS V14.01,2013-05-17 08:21:00,
2013-05-17 01:26:00,53.5,49.4,29.95,ENE,62,0.0,0.0,86,0.00,,---,0.00,VWS V14.01,2013-05-17 08:26:00,
2013-05-17 01:30:00,53.4,49.3,29.95,ENE,62,0.0,0.0,86,0.00,,---,0.00,VWS V14.01,2013-05-17 08:30:00,
2013-05-17 01:31:00,53.4,49.3,29.95,ENE,62,0.0,0.0,86,0.00,,---,0.00,VWS V14.01,2013-05-17 08:31:00,
2013-05-17 01:36:00,53.4,49.3,29.95,ENE,62,0.0,1.0,86,0.00,,---,0.00,VWS V14.01,2013-05-17 08:36:00,
2013-05-17 01:41:00,53.3,49.5,29.94,ENE,62,1.0,1.0,87,0.00,,---,0.00,VWS V14.01,2013-05-17 08:41:00,
2013-05-17 01:45:00,53.2,49.4,29.94,ENE,62,0.0,1.0,87,0.00,,---,0.00,VWS V14.01,2013-05-17 08:45:00,
2013-05-17 01:46:00,53.1,49.3,29.95,ENE,62,0.0,1.0,87,0.00,,---,0.00,VWS V14.01,2013-05-17 08:46:00,
2013-05-17 01:51:00,53.0,49.5,29.94,ENE,62,0.0,1.0,88,0.00,,---,0.00,VWS V14.01,2013-05-17 08:51:00,
2013-05-17 01:56:00,52.9,49.5,29.94,ENE,62,0.0,2.0,88,0.00,,---,0.00,VWS V14.01,2013-05-17 08:56:00,
2013-05-17 02:00:00,52.8,49.3,29.95,ENE,62,0.0,2.0,88,0.00,,---,0.00,VWS V14.01,2013-05-17 09:00:00,
2013-05-17 02:01:00,52.9,49.5,29.95,ENE,62,0.0,0.0,88,0.00,,---,0.00,VWS V14.01,2013-05-17 09:01:00,
2013-05-17 02:06:00,52.8,49.3,29.94,ENE,62,0.0,0.0,88,0.00,,---,0.00,VWS V14.01,2013-05-17 09:06:00,
2013-05-17 02:11:00,52.8,49.3,29.94,ENE,62,0.0,1.0,88,0.00,,---,0.00,VWS V14.01,2013-05-17 09:11:00,
2013-05-17 02:15:00,52.7,49.2,29.94,East,89,1.0,1.0,88,0.00,,---,0.00,VWS V14.01,2013-05-17 09:15:00,
2013-05-17 02:16:00,52.7,49.2,29.94,East,89,1.0,1.0,88,0.00,,---,0.00,VWS V14.01,2013-05-17 09:16:00,
2013-05-17 02:21:00,52.6,49.5,29.95,East,89,0.0,1.0,89,0.00,,---,0.00,VWS V14.01,2013-05-17 09:21:00,
2013-05-17 02:26:00,52.6,49.5,29.95,East,89,0.0,1.0,89,0.00,,---,0.00,VWS V14.01,2013-05-17 09:26:00,
2013-05-17 02:30:00,52.6,49.5,29.95,ENE,66,0.0,1.0,89,0.00,,---,0.00,VWS V14.01,2013-05-17 09:30:00,
2013-05-17 02:31:00,52.6,49.5,29.95,ENE,66,0.0,1.0,89,0.00,,---,0.00,VWS V14.01,2013-05-17 09:31:00,
2013-05-17 02:36:00,52.5,49.4,29.94,NE,49,0.0,2.0,89,0.00,,---,0.00,VWS V14.01,2013-05-17 09:36:00,
2013-05-17 02:41:00,52.4,49.3,29.94,NE,49,0.0,2.0,89,0.00,,---,0.00,VWS V14.01,2013-05-17 09:41:00,
2013-05-17 02:45:00,52.4,49.3,29.94,East,93,0.0,2.0,89,0.00,,---,0.00,VWS V14.01,2013-05-17 09:45:00,
2013-05-17 02:46:00,52.4,49.3,29.95,East,93,0.0,0.0,89,0.00,,---,0.00,VWS V14.01,2013-05-17 09:46:00,
2013-05-17 02:51:00,52.3,49.2,29.95,East,93,0.0,0.0,89,0.00,,---,0.00,VWS V14.01,2013-05-17 09:51:00,
2013-05-17 02:56:00,52.3,49.2,29.95,East,89,1.0,1.0,89,0.00,,---,0.00,VWS V14.01,2013-05-17 09:56:00,
2013-05-17 03:00:00,52.3,49.2,29.95,East,89,0.0,1.0,89,0.00,,---,0.00,VWS V14.01,2013-05-17 10:00:00,
2013-05-17 03:01:00,52.2,49.1,29.95,East,88,0.0,1.0,89,0.00,,---,0.00,VWS V14.01,2013-05-17 10:01:00,
2013-05-17 03:06:00,52.1,49.0,29.95,ESE,109,2.0,3.0,89,0.00,,---,0.00,VWS V14.01,2013-05-17 10:06:00,
2013-05-17 03:11:00,52.0,48.9,29.95,ESE,111,0.0,3.0,89,0.00,,---,0.00,VWS V14.01,2013-05-17 10:11:00,
2013-05-17 03:15:00,52.0,48.9,29.95,East,79,0.0,3.0,89,0.00,,---,0.00,VWS V14.01,2013-05-17 10:15:00,
2013-05-17 03:16:00,52.0,48.9,29.95,East,79,0.0,0.0,89,0.00,,---,0.00,VWS V14.01,2013-05-17 10:16:00,
2013-05-17 03:21:00,51.9,48.8,29.95,East,94,0.0,2.0,89,0.00,,---,0.00,VWS V14.01,2013-05-17 10:21:00,
2013-05-17 03:26:00,51.9,48.8,29.95,NNW,337,1.0,2.0,89,0.00,,---,0.00,VWS V14.01,2013-05-17 10:26:00,
2013-05-17 03:30:00,51.9,48.8,29.95,ESE,112,0.0,3.0,89,0.00,,---,0.00,VWS V14.01,2013-05-17 10:30:00,
2013-05-17 03:45:00,51.8,48.4,29.95,ESE,112,0.0,3.0,88,0.00,,---,0.00,VWS V14.01,2013-05-17 10:45:00,
2013-05-17 04:00:00,51.7,48.3,29.95,ESE,112,0.0,2.0,88,0.00,,---,0.00,VWS V14.01,2013-05-17 11:00:00,
2013-05-17 04:30:00,51.7,48.3,29.95,West,270,0.0,2.0,88,0.00,,---,0.00,VWS V14.01,2013-05-17 11:30:00,
2013-05-17 04:45:00,51.7,48.6,29.95,West,270,0.0,1.0,89,0.00,,---,0.00,VWS V14.01,2013-05-17 11:45:00,
2013-05-17 05:00:00,51.5,48.4,29.95,ENE,68,0.0,2.0,89,0.00,,---,0.00,VWS V14.01,2013-05-17 12:00:00,
2013-05-17 05:15:00,51.3,48.2,29.95,ESE,112,0.0,2.0,89,0.00,,---,0.00,VWS V14.01,2013-05-17 12:15:00,
2013-05-17 05:30:00,51.2,48.1,29.95,East,90,0.0,4.0,89,0.00,,---,0.00,VWS V14.01,2013-05-17 12:30:00,
2013-05-17 05:45:00,51.2,48.1,29.95,ENE,68,0.0,2.0,89,0.00,,---,0.00,VWS V14.01,2013-05-17 12:45:00,
2013-05-17 06:00:00,51.2,48.4,29.96,East,90,0.0,2.0,90,0.00,,---,0.00,VWS V14.01,2013-05-17 13:00:00,
2013-05-17 06:15:00,51.2,48.4,29.96,ENE,68,0.0,2.0,90,0.00,,---,0.00,VWS V14.01,2013-05-17 13:15:00,
2013-05-17 06:30:00,51.0,48.2,29.96,East,90,0.0,2.0,90,0.00,,---,0.00,VWS V14.01,2013-05-17 13:30:00,
2013-05-17 06:45:00,51.0,48.2,29.96,East,90,0.0,3.0,90,0.00,,---,0.00,VWS V14.01,2013-05-17 13:45:00,
2013-05-17 07:00:00,51.2,48.4,29.96,East,90,0.0,1.0,90,0.00,,---,0.00,VWS V14.01,2013-05-17 14:00:00,
2013-05-17 07:15:00,51.3,48.2,29.97,East,90,0.0,5.0,89,0.00,,---,0.00,VWS V14.01,2013-05-17 14:15:00,
2013-05-17 07:30:00,51.5,48.4,29.97,ESE,112,0.0,3.0,89,0.00,,---,0.00,VWS V14.01,2013-05-17 14:30:00,
2013-05-17 07:45:00,51.6,48.8,29.97,ESE,112,0.0,3.0,90,0.00,,---,0.00,VWS V14.01,2013-05-17 14:45:00,
2013-05-17 08:00:00,51.5,48.7,29.98,ESE,112,1.0,7.0,90,0.00,,---,0.00,VWS V14.01,2013-05-17 15:00:00,
2013-05-17 08:15:00,51.7,48.9,29.98,ESE,112,1.0,5.0,90,0.00,,---,0.00,VWS V14.01,2013-05-17 15:15:00,
2013-05-17 08:30:00,51.7,48.6,29.97,ESE,112,1.0,7.0,89,0.00,,---,0.00,VWS V14.01,2013-05-17 15:30:00,
2013-05-17 08:45:00,51.9,49.1,29.98,East,90,1.0,5.0,90,0.00,,---,0.00,VWS V14.01,2013-05-17 15:45:00,
2013-05-17 09:00:00,52.3,49.5,29.98,ESE,112,1.0,7.0,90,0.00,,---,0.00,VWS V14.01,2013-05-17 16:00:00,
2013-05-17 09:15:00,52.4,49.3,29.97,ESE,112,1.0,7.0,89,0.00,,---,0.00,VWS V14.01,2013-05-17 16:15:00,
2013-05-17 09:30:00,52.5,49.4,29.97,East,90,1.0,5.0,89,0.01,,---,0.01,VWS V14.01,2013-05-17 16:30:00,
2013-05-17 09:45:00,53.0,50.2,29.97,ESE,112,1.0,5.0,90,0.01,,---,0.01,VWS V14.01,2013-05-17 16:45:00,
2013-05-17 10:00:00,53.7,49.9,29.98,East,90,1.0,5.0,87,0.01,,---,0.01,VWS V14.01,2013-05-17 17:00:00,
2013-05-17 10:15:00,54.2,49.8,29.98,ESE,112,1.0,5.0,85,0.01,,---,0.01,VWS V14.01,2013-05-17 17:15:00,
2013-05-17 10:30:00,54.6,50.5,29.98,East,90,1.0,5.0,86,0.01,,---,0.01,VWS V14.01,2013-05-17 17:30:00,
2013-05-17 10:45:00,55.2,50.8,29.98,SE,135,1.0,5.0,85,0.00,,---,0.01,VWS V14.01,2013-05-17 17:45:00,
2013-05-17 11:00:00,55.7,49.6,29.99,East,90,2.0,7.0,80,0.00,,---,0.01,VWS V14.01,2013-05-17 18:00:00,
2013-05-17 11:15:00,57.3,50.5,29.98,South,180,1.0,7.0,78,0.00,,---,0.01,VWS V14.01,2013-05-17 18:15:00,
2013-05-17 11:30:00,57.8,49.9,29.98,East,90,2.0,8.0,75,0.00,,---,0.01,VWS V14.01,2013-05-17 18:30:00,
2013-05-17 11:45:00,58.3,50.1,29.98,ESE,112,2.0,10.0,74,0.00,,---,0.01,VWS V14.01,2013-05-17 18:45:00,
2013-05-17 12:00:00,59.2,50.2,29.99,East,90,2.0,11.0,72,0.00,,---,0.01,VWS V14.01,2013-05-17 19:00:00,
2013-05-17 12:15:00,58.9,49.2,29.99,East,90,2.0,8.0,70,0.00,,---,0.01,VWS V14.01,2013-05-17 19:15:00,
2013-05-17 12:30:00,58.5,48.4,29.99,East,90,3.0,11.0,69,0.00,,---,0.01,VWS V14.01,2013-05-17 19:30:00,
2013-05-17 12:45:00,59.1,48.6,29.99,ESE,112,2.0,9.0,68,0.00,,---,0.01,VWS V14.01,2013-05-17 19:45:00,
2013-05-17 13:00:00,59.2,48.7,29.99,ESE,112,2.0,7.0,68,0.00,,---,0.01,VWS V14.01,2013-05-17 20:00:00,
2013-05-17 13:15:00,59.3,46.7,29.99,SE,135,2.0,9.0,63,0.00,,---,0.01,VWS V14.01,2013-05-17 20:15:00,
2013-05-17 13:30:00,59.3,47.1,29.99,ESE,112,3.0,10.0,64,0.00,,---,0.01,VWS V14.01,2013-05-17 20:30:00,
2013-05-17 13:45:00,59.3,47.5,29.99,SW,225,3.0,10.0,65,0.00,,---,0.01,VWS V14.01,2013-05-17 20:45:00,
2013-05-17 14:00:00,58.8,48.3,29.99,ESE,112,2.0,13.0,68,0.00,,---,0.01,VWS V14.01,2013-05-17 21:00:00,
2013-05-17 14:15:00,59.1,48.2,29.99,SE,135,1.0,7.0,67,0.00,,---,0.01,VWS V14.01,2013-05-17 21:15:00,
2013-05-17 14:30:00,58.6,47.3,29.99,East,90,2.0,9.0,66,0.00,,---,0.01,VWS V14.01,2013-05-17 21:30:00,
2013-05-17 14:45:00,59.1,48.2,29.99,ESE,112,2.0,7.0,67,0.00,,---,0.01,VWS V14.01,2013-05-17 21:45:00,
2013-05-17 15:00:00,60.0,48.2,29.99,SE,135,2.0,7.0,65,0.00,,---,0.01,VWS V14.01,2013-05-17 22:00:00,
2013-05-17 15:15:00,60.4,48.6,29.99,East,90,3.0,10.0,65,0.00,,---,0.01,VWS V14.01,2013-05-17 22:15:00,
2013-05-17 15:30:00,63.5,49.8,29.98,ESE,112,2.0,10.0,61,0.00,,---,0.01,VWS V14.01,2013-05-17 22:30:00,
2013-05-17 15:45:00,62.6,48.5,29.98,East,90,3.0,9.0,60,0.00,,---,0.01,VWS V14.01,2013-05-17 22:45:00,
2013-05-17 16:00:00,62.4,48.3,29.98,ESE,112,2.0,9.0,60,0.00,,---,0.01,VWS V14.01,2013-05-17 23:00:00,
2013-05-17 16:15:00,63.0,48.0,29.97,ENE,68,2.0,9.0,58,0.00,,---,0.01,VWS V14.01,2013-05-17 23:15:00,
2013-05-17 16:30:00,62.4,47.9,29.97,ESE,112,2.0,9.0,59,0.00,,---,0.01,VWS V14.01,2013-05-17 23:30:00,
2013-05-17 16:45:00,62.2,48.2,29.97,East,90,3.0,10.0,60,0.00,,---,0.01,VWS V14.01,2013-05-17 23:45:00,
2013-05-17 17:00:00,62.0,48.0,29.97,East,90,2.0,8.0,60,0.00,,---,0.01,VWS V14.01,2013-05-18 00:00:00,
2013-05-17 17:15:00,63.4,47.9,29.98,SE,135,2.0,8.0,57,0.00,,---,0.01,VWS V14.01,2013-05-18 00:15:00,
2013-05-17 17:30:00,62.8,46.4,29.98,ESE,112,2.0,8.0,55,0.00,,---,0.01,VWS V14.01,2013-05-18 00:30:00,
2013-05-17 17:45:00,61.4,47.8,29.97,East,90,3.0,10.0,61,0.00,,---,0.01,VWS V14.01,2013-05-18 00:45:00,
2013-05-17 18:00:00,61.6,48.5,29.98,SE,135,1.0,7.0,62,0.00,,---,0.01,VWS V14.01,2013-05-18 01:00:00,
2013-05-17 18:15:00,62.3,49.1,29.98,ESE,112,1.0,7.0,62,0.00,,---,0.01,VWS V14.01,2013-05-18 01:15:00,
2013-05-17 18:30:00,61.9,50.0,29.98,East,90,2.0,8.0,65,0.00,,---,0.01,VWS V14.01,2013-05-18 01:30:00,
2013-05-17 18:45:00,61.1,49.3,29.98,East,90,2.0,9.0,65,0.00,,---,0.01,VWS V14.01,2013-05-18 01:45:00,
2013-05-17 19:00:00,60.5,48.3,29.98,ESE,112,2.0,8.0,64,0.00,,---,0.01,VWS V14.01,2013-05-18 02:00:00,
2013-05-17 19:15:00,60.2,47.6,29.99,SE,135,1.0,8.0,63,0.00,,---,0.01,VWS V14.01,2013-05-18 02:15:00,
2013-05-17 19:30:00,59.5,47.7,29.99,WSW,248,1.0,7.0,65,0.00,,---,0.01,VWS V14.01,2013-05-18 02:30:00,
2013-05-17 19:45:00,58.7,48.6,30.00,WSW,248,1.0,8.0,69,0.00,,---,0.01,VWS V14.01,2013-05-18 02:45:00,
2013-05-17 20:00:00,55.8,49.4,30.00,West,270,4.0,9.0,79,0.00,,---,0.01,VWS V14.01,2013-05-18 03:00:00,
2013-05-17 20:15:00,54.8,49.4,30.01,WSW,248,2.0,9.0,82,0.00,,---,0.01,VWS V14.01,2013-05-18 03:15:00,
2013-05-17 20:30:00,54.1,49.4,30.02,West,270,1.0,5.0,84,0.00,,---,0.01,VWS V14.01,2013-05-18 03:30:00,
2013-05-17 20:45:00,53.9,49.5,30.02,WNW,292,1.0,3.0,85,0.00,,---,0.01,VWS V14.01,2013-05-18 03:45:00,
2013-05-17 21:00:00,53.5,49.1,30.02,WNW,292,0.0,3.0,85,0.00,,---,0.01,VWS V14.01,2013-05-18 04:00:00,
2013-05-17 21:15:00,53.2,49.1,30.03,West,270,1.0,5.0,86,0.00,,---,0.01,VWS V14.01,2013-05-18 04:15:00,
2013-05-17 21:30:00,53.1,49.0,30.03,West,270,0.0,2.0,86,0.00,,---,0.01,VWS V14.01,2013-05-18 04:30:00,
2013-05-17 21:45:00,53.0,48.9,30.04,West,270,1.0,4.0,86,0.00,,---,0.01,VWS V14.01,2013-05-18 04:45:00,
2013-05-17 22:00:00,53.0,48.9,30.04,ENE,68,0.0,4.0,86,0.00,,---,0.01,VWS V14.01,2013-05-18 05:00:00,
2013-05-17 22:15:00,53.1,49.0,30.04,ENE,68,0.0,0.0,86,0.00,,---,0.01,VWS V14.01,2013-05-18 05:15:00,
2013-05-17 22:30:00,53.0,48.9,30.04,East,90,0.0,2.0,86,0.00,,---,0.01,VWS V14.01,2013-05-18 05:30:00,
2013-05-17 22:45:00,52.9,49.1,30.05,East,90,0.0,2.0,87,0.00,,---,0.01,VWS V14.01,2013-05-18 05:45:00,
2013-05-17 23:00:00,52.9,49.1,30.05,East,90,0.0,2.0,87,0.00,,---,0.01,VWS V14.01,2013-05-18 06:00:00,
2013-05-17 23:15:00,52.9,49.1,30.05,NE,45,0.0,3.0,87,0.00,,---,0.01,VWS V14.01,2013-05-18 06:15:00,
2013-05-17 23:30:00,52.8,49.0,30.05,ENE,68,0.0,3.0,87,0.00,,---,0.01,VWS V14.01,2013-05-18 06:30:00,
2013-05-17 23:45:00,52.8,49.0,30.06,East,90,0.0,1.0,87,0.00,,---,0.01,VWS V14.01,2013-05-18 06:45:00,